Location: Chassagnes
(44.4047°N, 4.1657°E)
Time: 13:05:11
(UTC+00:00)

SL-4 R/B - Pass Details

Date: 27 October 2020
Orbit: 427 x 665 km, 51.6° (Epoch: 23 November)

Event Time Altitude Azimuth Distance (km) Brightness Sun altitude
Rises 19:21:08 0° 301° (WNW) 2,484 6.4 -29.4°
Reaches altitude 10° 19:23:15 10° 306° (NW) 1,639 5.2 -29.8°
Enters shadow 19:24:19 18° 312° (NW) 1,237 4.4 -30.0°
